Погода в Елани

Погода в Елани : погода сейчас, прогноз погоды и архив. Всё, что Вы хотите узнать о погоде в Елани!

Хотите узнать прогноз погоды в Елани? Тогда Вам сюда: Погода в Елани

Поиск расширенной информации на нашем сайте:

Другие новости

Новости СМИ2

Главная страница сайта

Новости сайта

03.07.2017

Напоминаем, что на нашем специализированном сайте Метеоцентр.Азия вы можете получить высокодетализированные автоматические прогнозы погоды по пунктам России, СНГ и мира в авиационном формате (включающие направление и скорость ветра, видимость, явления погоды, количество и форму облачности, нижнюю и верхнюю границу облачности).


Погода в Елани - сегодня

Время (UTC), дата Ветер
(°,м/с) 
Видим.   Явления Облачность Т
(°С)
Тd
(°С)
f(%) Тe
(°С)
Pmin
(гПа)
dP
(гПа)
Po
(мм)
O2
(г/м3)
Тmin Tmax R s Состояние
почвы
12 14.06.18 040 (СВ) 20000 м    8/5 600 м кучево-дожд., верхняя 
[Cb cap|Ci fib]
+27.3 +13.9 44 +34  1010.4  -0.3  746  271           
18 14.06.18 040 (СВ) 20000 м    10/6 600 м кучево-дожд., средняя 
[Cb cap|Ac As]
+20.7 +15.3 71 +30  1011.1  0.3  747  276           
21 14.06.18 030 (СВ) 20000 м    10/0 средняя 
[Ac As]
+19.1 +12.6 66 +25  1011.8  0.5  747  279           
00 15.06.18 040 (СВ) 20000 м    4/4 600 м кучево-дожд. 
[Cb cap]
+17 +13.7 81 +24  1012  0.2  747  281           
06 15.06.18 050 (СВ) 20000 м    10/4 600 м кучево-дожд., средняя 
[Cb cap|Ac cast]
+19 +14.2 74 +26  1012.9  0.3  748  279           
09 15.06.18 040 (СВ) 5{10}  20000 м    10/10 300 м кучево-дожд. 
[Cb cap]
+21.9 +13.1 57 +28  1013.5  0.8  749  277           
12 15.06.18 050 (СВ) 20000 м    8/8 300 м кучево-дожд. 
[Cb cap]
+24.4 +11.7 45 +28  1013.3  0.1  749  275           
18 15.06.18 040 (СВ) 20000 м    3/3 1000 м кучево-дожд. 
[Cb cap]
+17.8 +9.5 58 +20  1014.4  0.4  749  282           
21 15.06.18 040 (СВ) 20000 м    8/8 300 м кучево-дожд. 
[Cb cap]
+15.6 +9.8 68 +17  1015.5  0.4  750  284           
00 16.06.18 070 (В) 20000 м    9/9 300 м кучево-дожд. 
[Cb cap]
+14.1 +8.8 70 +15  1016.4  0.8  750  286           
06 16.06.18 060 (СВ) 20000 м    3/0 верхняя 
[Ci fib]
+19.1 +4.9 39 +20  1017.5  0.7  751  282           
09 16.06.18 030 (СВ) 20000 м    5/0 верхняя 
[Ci fib]
+22.1 +5 33 +22  1017.3  751  279           
12 16.06.18 010 (С) 20000 м    8/0 верхняя 
[Ci fib]
+22.9 +3.4 28 +23  1016.8  -0.5  751  279           
18 16.06.18 010 (С) 20000 м    ясно 
+16.6 +1.8 37 +17  1017.9  752  285           
21 16.06.18 020 (С) 20000 м    ясно 
+12.5 +2.7 51 +13  1018.7  0.6  752  289           
00 17.06.18 350 (С) 20000 м    ясно 
+9.6 +3 63 +9  1018.9  0.1  752  292           
06 17.06.18 010 (С) 20000 м    ясно 
+21.4 +3.5 31 +21  1018.1  -0.3  752  280           
09 17.06.18 360 (С) 20000 м    ясно 
+23.8 +2.1 24 +24  1016.9  -1  751  278           
12 17.06.18 040 (СВ) 20000 м    ясно 
+25.1 +0.8 20 +25  1015.4  -1.4  750  277           
15 17.06.18 010 (С) 20000 м    ясно 
+24.6 -0.6 19 +25  1014.7  -0.8  749  277    +25.5       
18 17.06.18 340 (С) 20000 м    ясно 
+18.7 +1.9 32 +20  1015.5  0.5  750  282           
21 17.06.18 350 (С) 20000 м    ясно 
+13.9 +4.5 53 +14  1015.6  0.1  750  287           
00 18.06.18 350 (С) 20000 м    ясно 
+11.7 +4.9 63 +11  1015.6  -0.2  750  289           
06 18.06.18 310 (СЗ) 20000 м    3/3 1000 м 
[Cu hum]
+24.7 +6.9 32 +25  1014.2  -0.7  749  276           
09 18.06.18 360 (С) 20000 м    1/1 1000 м 
[Cu hum]
+26.9 +2 20 +27  1013.3  -0.8  749  274           
Время (UTC), дата Ветер
(°,м/с) 
Видим.   Явления Облачность Т
(°С)
Тd
(°С)
f(%) Тe
(°С)
Pmin
(гПа)
dP
(гПа)
Po
(мм)
O2
(г/м3)
Тmin Tmax R s Состояние
почвы

Для получения пояснительной информации подведите курсор к названию столбца.

ПОГОДА в Елани - архив

Всё, что Вы хотите узнать о погоде в Елани - удобно и подробно!

Выберите нужную дату (начиная с 1 января 2015* года) и нажмите кнопку "Найти".
Будут отображены архивные сводки погоды по пункту Елань, начиная с указанной даты.


Отображать данные в формате CSV (для использования в таблицах Excel)


Внимание! Наш архив погоды предназначен исключительно для личного некоммерческого использования в познавательных целях. Если Вам необходимы официальные справки о состоянии погоды (для производственных, юридических, коммерческих и т.п. целей), обращайтесь в органы Росгидромета.

*Примечание: данная дата относится к архиву по метеостанциям СССР (Россия, СНГ, Балтия).
Архив по метеостанциям Зарубежной Европы и Азии (кроме Китая) хранится 10 дней, по другим регионам земного шара (Китай, Африка, Америка, Австралия, Океания) - 1 день.

Елань - район местоположения метеостанции


Название, широта, долгота, высота метеостанции:
Елань 50.9°ш. 43.7°д. 132 м над ур. моря [Российская Федерация]

Дополнительная информация

В oтличие oт бoльшинства пoгoдных сайтoв мы публикуем пoдрoбную метеoинфoрмацию в детальнoм прoфессиoнальнoм фoрмате.

Характеристики температуры и влажнoсти вoздуха измеряются на высoте 2 м в тени вдали oт зданий и деревьев.
Скoрoсть ветра измеряется на высoте 10 м (на урoвне рoста челoвека скoрoсть ветра ниже в 1.5-2 раза). Если метеoстанция нахoдится в гoрoде или в лесу, тo скoрoсть ветра занижена на 2-4 м/с пo сравнению с oткрытым местoм. Скoрoсть ветра над акватoриями крупных рек и oзёр, а также на вершинах хoлмoв на 2-5 м/с выше, чем в oбычных услoвиях.
Атмoсфернoе давление в разных тoчках местнoсти мoжет значительнo oтличаться oт давления на метеoстанции, в зависимoсти oт услoвий рельефа (при пoдъёме на 10 м давление пoнижается примернo на 1 мм рт.ст.).